This demonstration page uses our WeatherBlox Daily Observations layout. Learn more.

41.55636, -103.73856

Hourly Observations for January 10, 2018

Temp ( °F °C ) Dew Point ( °F °C ) Humidity (%) Winds ( mph kmh ) Pressure ( in mb ) Visibility ( mi km ) Precip ( " mm )
12:53 am 00:53 Partly Cloudy 45 7.2 31 -0.6 58 58 E 3 6 29.55 1001 10 16.0934 0 0
1:53 am 01:53 Mostly Cloudy 38 3.3 31 -0.6 76 76 N 6 9 29.54 1000 10 16.0934 0 0
2:53 am 02:53 Cloudy 37 2.8 30 -1.1 76 76 Calm 29.55 1001 10 16.0934 0 0
3:53 am 03:53 Clear 42 5.6 32 0 68 68 NNE 6 9 29.5 999 10 16.0934 0 0
4:53 am 04:53 Clear 40 4.4 32 0 73 73 N 5 7 29.5 999 10 16.0934 0 0
5:53 am 05:53 Clear 40 4.4 32 0 73 73 NW 7 11 29.47 998 10 16.0934 0 0
6:53 am 06:53 Clear 47 8.3 33 0.6 59 59 NNW 9 15 29.45 997 10 16.0934 0 0
7:53 am 07:53 Sunny 46 7.8 33 0.6 61 61 NNW 7 11 29.44 997 10 16.0934 0 0
8:53 am 08:53 Sunny 49 9.4 33 0.6 55 55 NW 8 13 29.41 996 10 16.0934 0 0
9:53 am 09:53 Mostly Sunny 57 13.9 33 0.6 41 41 W 3 6 29.42 996 10 16.0934 0 0
10:53 am 10:53 Cloudy with Light Rain 50 10 33 0.6 52 52 SSE 5 7 29.44 997 10 16.0934 0 0.0254
11:53 am 11:53 Cloudy with Light Rain 55 12.8 34 1.1 45 45 SE 3 6 29.42 996 10 16.0934 0 0.0254
12:53 pm 12:53 Cloudy 46 7.8 35 1.7 66 66 N 5 7 29.39 995 10 16.0934 0 0.0254
1:53 pm 13:53 Cloudy with Light Rain 53 11.7 35 1.7 51 51 NW 14 22 29.39 995 10 16.0934 0 0.0254
2:53 pm 14:53 Cloudy 45 7.2 38 3.3 77 77 Calm 29.43 997 10 16.0934 0.03 0.762
3:53 pm 15:53 Cloudy with Light Rain 38 3.3 32 0 79 79 N 32 52 29.51 999 10 16.0934 0 0.0254
4:25 pm 16:25 Cloudy with Light Rain 36 2.2 28 -2.2 73 73 NW 32 52 29.71 1006 10 16.0934 0 0.0254
4:32 pm 16:32 Cloudy with Light Rain 28 -2 25 -4 86 86 NNW 35 56 29.77 1008 10 16.0934 0 0
4:44 pm 16:44 Windy with Snow Likely 28 -2 21 -6 74 74 NNW 32 52 29.8 1009 4 6.43736 0 0
4:53 pm 16:53 Windy with Snow Likely 28 -2.2 21 -6.1 75 75 NNW 25 41 29.72 1006 3 4.82802 0 0.0254
5:21 pm 17:21 Windy with Snow Likely 30 -1.1 20 -6.7 66 66 NNW 22 35 29.83 1010 1.75 2.816345 0.01 0.254
5:53 pm 17:53 Windy with Snow Likely 28 -2.2 20 -6.7 72 72 NW 21 33 29.79 1009 1.5 2.41401 0.02 0.508
6:16 pm 18:16 Mostly Cloudy with Snow 30 -1 19 -7 64 64 NW 20 31 29.88 1012 0.5 0.80467 0 0
6:33 pm 18:33 Cloudy with Light Snow 30 -1.1 18 -7.8 61 61 NW 18 30 29.91 1013 1.5 2.41401 0.03 0.762
6:37 pm 18:37 Windy with Snow Likely 30 -1.1 17 -8.3 58 58 NW 21 33 29.91 1013 3 4.82802 0.03 0.762
6:53 pm 18:53 Cloudy 30 -1.1 16 -8.9 56 56 NW 21 33 29.82 1010 10 16.0934 0.03 0.762
7:53 pm 19:53 Windy with Snow Likely 27 -2.8 13 -10.6 55 55 NW 25 41 29.86 1011 4 6.43736 0 0.0254
8:53 pm 20:53 Clear 27 -2.8 12 -11.1 53 53 NW 22 35 29.87 1012 10 16.0934 0 0.0254
9:53 pm 21:53 Clear 25 -3.9 11 -11.7 55 55 WNW 26 43 29.86 1011 9 14.48406 0 0.0254
10:53 pm 22:53 Clear 24 -4.4 10 -12.2 55 55 WNW 23 37 29.93 1014 7 11.26538 0 0
11:53 pm 23:53 Clear 22 -5.6 9 -12.8 57 57 WNW 18 30 29.94 1014 10 16.0934 0 0

Powered by AerisWeather